Location: Stony Creek
(40.9500°S, 175.8500°E)
Time: 08:49:02
(UTC+00:00)

Landsat 7 - Pass Details

Date: 15 May 2026
Orbit: 679 x 682 km, 97.9° (Epoch: 9 June)

Event Time Altitude Azimuth Distance (km) Brightness Sun altitude
Rises 17:36:39 0° 12° (NNE) 3,031 7.4 -19.0°
Reaches altitude 10° 17:38:52 10° 10° (N) 2,124 6.5 -18.6°
Maximum altitude 17:43:32 81° 283° (WNW) 703 3.7 -17.8°
Drops below altitude 10° 17:48:16 10° 194° (SSW) 2,156 6.1 -16.9°
Sets 17:50:32 0° 193° (SSW) 3,080 6.9 -16.5°
